Location: B?ogocice
(50.2413°N, 20.2361°E)
Time: 04:30:02
(UTC+00:00)

ALOS - Pass Details

Date: 20 September 2024
Orbit: 670 x 673 km, 98.0° (Epoch: 04 October)

Event Time Altitude Azimuth Distance (km) Brightness Sun altitude
Rises 02:33:18 0° 6° (N) 3,032 6.0 -17.8°
Reaches altitude 10° 02:35:46 10° 355° (N) 2,112 5.0 -17.4°
Maximum altitude 02:39:42 28° 297° (WNW) 1,245 3.3 -16.8°
Enters shadow 02:40:36 26° 276° (W) 1,306 3.2 -16.7°
